1486436400.81,37183,10.44,72684.8,-8.01,-17.25,-17.11,0,*50
1486436402.1,37184,10.44,72688.8,-7.99,-17.25,-17.11,0,*59
1486436403.36,37185,10.44,72686.8,-8.01,-17.25,-17.21,0,*55
1486436404.62,37186,10.44,72684.3,-8.01,-17.25,-17.25,0,*52
1486436405.91,37187,10.44,72686.3,-7.99,-17.25,-17.25,0,*5D
1486436407.18,37188,10.44,72686.5,-8.01,-17.25,-17.21,0,*58
1486436408.46,37189,10.44,72690.3,-7.99,-17.25,-17.25,0,*53
1486436409.73,37190,10.44,72686.3,-8.01,-17.25,-17.21,0,*51
1486436410.99,37191,10.44,72686.8,-8.01,-17.25,-17.11,0,*53
1486436412.26,37192,10.44,72684.0,-8.01,-17.25,-17.21,0,*53
1486436413.55,37193,10.44,72686.5,-7.99,-17.21,-17.11,0,*5B
1486436414.81,37194,10.44,72686.5,-8.01,-17.25,-17.11,0,*56
1486436416.08,37195,10.44,72686.0,-8.01,-17.25,-17.11,0,*57
1486436417.34,37196,10.44,72684.3,-8.01,-17.25,-17.21,0,*57
1486436418.6,37197,10.44,72684.5,-8.01,-17.25,-17.11,0,*55
1486436419.9,37198,10.44,72688.8,-7.99,-17.25,-17.11,0,*54
1486436421.16,37199,10.44,72682.5,-8.01,-17.25,-17.21,0,*58
1486436422.43,37200,10.44,72686.5,-7.99,-17.35,-17.21,0,*54
1486436423.72,37201,10.44,72688.3,-7.99,-17.25,-17.21,0,*54
1486436424.98,37202,10.44,72684.8,-8.01,-17.21,-17.11,0,*5E
1486436426.27,37203,10.44,72688.3,-7.99,-17.25,-17.11,0,*55
1486436427.57,37204,10.44,72688.5,-7.99,-17.25,-17.11,0,*52
1486436428.86,37205,10.44,72690.8,-7.99,-17.25,-17.11,0,*53
1486436430.16,37206,10.44,72690.0,-7.99,-17.25,-17.07,0,*57
1486436431.46,37207,10.44,72686.8,-7.99,-17.25,-17.07,0,*56
1486436432.75,37208,10.44,72690.8,-7.99,-17.25,-17.11,0,*5E
1486436434.04,37209,10.44,72690.8,-7.99,-17.25,-17.11,0,*5F
1486436435.31,37210,10.44,72688.3,-8.01,-17.25,-17.07,0,*5E
1486436436.6,37211,10.44,72690.0,-7.99,-17.25,-17.11,0,*56
1486436437.89,37212,10.44,72688.5,-7.99,-17.21,-17.11,0,*51
1486436439.19,37213,10.44,72690.3,-7.99,-17.25,-17.07,0,*53
1486436440.48,37214,10.44,72690.3,-7.99,-17.25,-17.11,0,*53
1486436441.78,37215,10.44,72694.0,-7.99,-17.25,-17.07,0,*55
1486436443.05,37216,10.44,72692.0,-7.97,-17.21,-17.07,0,*5C
1486436444.35,37217,10.44,72692.5,-7.99,-17.25,-17.07,0,*57
1486436445.62,37218,10.44,72688.0,-7.97,-17.21,-17.07,0,*52
1486436446.89,37219,10.44,72688.0,-7.97,-17.21,-17.07,0,*53
1486436448.15,37220,10.44,72690.5,-7.97,-17.21,-17.03,0,*5D
1486436449.41,37221,10.44,72690.3,-7.97,-17.21,-17.03,0,*5C
1486436450.7,37222,10.44,72690.3,-7.95,-17.17,-17.03,0,*58
1486436451.96,37223,10.44,72684.3,-7.97,-17.21,-17.03,0,*5E
1486436453.23,37224,10.44,72686.5,-7.97,-17.21,-17.03,0,*59
1486436454.48,37225,10.44,72690.3,-7.95,-17.11,-16.97,0,*55
1486436455.75,37226,10.44,72684.8,-7.97,-17.17,-17.07,0,*5A
1486436457.02,37227,10.44,72684.5,-7.97,-17.21,-17.03,0,*5A
1486436458.28,37228,10.44,72686.3,-7.97,-17.21,-17.03,0,*55
1486436459.56,37229,10.44,72688.0,-7.95,-17.11,-17.03,0,*55
1486436460.82,37230,10.44,72690.5,-7.95,-17.17,-16.97,0,*57
1486436462.07,37231,10.44,72686.5,-7.95,-17.11,-16.93,0,*54
1486436463.31,37232,10.44,72690.5,-7.97,-17.17,-16.89,0,*58
1486436464.55,37233,10.44,72688.3,-7.97,-17.17,-16.83,0,*53
1486436465.81,37234,10.44,72686.3,-7.95,-17.11,-16.83,0,*50
1486436467.04,37235,10.44,72686.0,-7.97,-17.17,-16.89,0,*5F
1486436468.28,37236,10.44,72686.8,-7.97,-17.17,-16.97,0,*53
1486436469.52,37237,10.44,72686.0,-7.97,-17.21,-16.97,0,*57
1486436470.78,37238,10.44,72686.3,-7.95,-17.17,-16.93,0,*5B
1486436472.03,37239,10.44,72686.8,-7.95,-17.11,-16.83,0,*5D
1486436473.27,37240,10.44,72686.0,-7.97,-17.21,-16.97,0,*57
1486436474.5,37241,10.44,72686.8,-7.93,-17.11,-16.83,0,*54
1486436475.76,37242,10.44,72686.3,-7.95,-17.11,-16.83,0,*51
1486436477.02,37243,10.44,72686.5,-7.95,-17.03,-16.79,0,*56
1486436478.25,37244,10.44,72688.8,-7.97,-17.17,-16.89,0,*59
1486436479.5,37245,10.44,72688.5,-7.95,-17.11,-16.93,0,*57
1486436480.74,37246,10.44,72686.5,-7.97,-17.21,-16.89,0,*5E
1486436481.97,37247,10.44,72690.8,-7.97,-17.17,-16.89,0,*5A
1486436483.23,37248,10.44,72688.5,-7.95,-17.11,-16.83,0,*5B
1486436484.49,37249,10.44,72684.0,-7.95,-17.11,-16.83,0,*5A
1486436485.73,37250,10.44,72692.3,-7.97,-17.17,-16.97,0,*53
1486436486.96,37251,10.44,72690.8,-7.93,-17.11,-16.83,0,*55
1486436488.22,37252,10.44,72688.3,-7.95,-17.17,-16.83,0,*56
1486436489.48,37253,10.44,72688.3,-7.95,-17.17,-16.83,0,*57
1486436490.75,37254,10.44,72690.8,-7.91,-17.07,-16.79,0,*50
1486436491.98,37255,10.44,72690.0,-7.93,-17.11,-16.83,0,*51
1486436493.24,37256,10.44,72690.0,-7.95,-17.03,-16.79,0,*52
1486436494.5,37257,10.44,72686.5,-7.95,-17.03,-16.79,0,*53
1486436495.76,37258,10.44,72690.0,-7.95,-17.03,-16.79,0,*5C
1486436497.02,37259,10.44,72684.8,-7.95,-17.17,-16.79,0,*58
1486436498.26,37260,10.44,72688.3,-7.97,-17.07,-16.83,0,*54
1486436499.54,37261,10.44,72690.0,-7.95,-17.11,-16.69,0,*54
1486436500.8,37262,10.44,72688.5,-7.95,-17.03,-16.79,0,*55
1486436502.06,37263,10.44,72690.0,-7.95,-17.03,-16.79,0,*54
1486436503.34,37264,10.44,72688.3,-7.95,-17.03,-16.69,0,*52
1486436504.6,37265,10.44,72688.0,-7.93,-17.03,-16.69,0,*55
1486436505.83,37266,10.44,72690.8,-7.93,-16.97,-16.69,0,*5A
1486436507.07,37267,10.44,72688.3,-7.91,-16.93,-16.59,0,*5E
1486436508.3,37268,10.44,72688.5,-7.93,-16.97,-16.69,0,*54
1486436509.58,37269,10.44,72688.3,-7.95,-17.03,-16.69,0,*5F
1486436510.86,37270,10.44,72690.3,-7.95,-17.03,-16.65,0,*5B
1486436512.15,37271,10.44,72686.5,-7.95,-17.03,-16.65,0,*5A
1486436513.38,37272,10.44,72690.8,-7.93,-16.97,-16.69,0,*5F
1486436514.61,37273,10.44,72686.8,-7.93,-16.97,-16.69,0,*5E
1486436515.84,37274,10.44,72688.3,-7.93,-16.97,-16.65,0,*55
1486436517.07,37275,10.44,72684.3,-7.93,-16.83,-16.65,0,*51
1486436518.28,37276,10.44,72688.0,-7.93,-16.97,-16.55,0,*54
1486436519.48,37277,10.44,72686.5,-7.93,-16.93,-16.55,0,*51
1486436520.7,37278,10.44,72686.5,-7.93,-16.93,-16.65,0,*5D
1486436521.93,37279,10.44,72688.3,-7.93,-16.93,-16.65,0,*5C
1486436523.16,37280,10.44,72686.0,-7.93,-16.89,-16.51,0,*56
1486436524.4,37281,10.44,72686.8,-7.91,-16.89,-16.59,0,*5D
1486436525.62,37282,10.44,72686.5,-7.93,-16.93,-16.65,0,*58
1486436526.85,37283,10.44,72688.3,-7.93,-16.93,-16.65,0,*59
1486436528.08,37284,10.44,72686.0,-7.93,-16.83,-16.65,0,*5F
1486436529.29,37285,10.44,72688.0,-7.93,-16.93,-16.55,0,*5C
1486436530.51,37286,10.44,72686.3,-7.93,-16.93,-16.65,0,*5C
1486436531.72,37287,10.44,72690.3,-7.93,-16.93,-16.55,0,*5E
1486436532.92,37288,10.44,72686.8,-7.93,-16.93,-16.55,0,*51
1486436534.12,37289,10.44,72690.0,-7.93,-16.93,-16.55,0,*50
1486436535.36,37290,10.44,72686.8,-7.91,-16.89,-16.59,0,*5D
1486436536.57,37291,10.44,72682.8,-7.93,-16.93,-16.55,0,*59
1486436537.79,37292,10.44,72686.8,-7.93,-16.93,-16.65,0,*59
1486436539.05,37293,10.44,72686.3,-7.91,-16.79,-16.51,0,*59
1486436540.31,37294,10.44,72688.0,-7.91,-16.89,-16.51,0,*51
1486436541.51,37295,10.44,72690.0,-7.93,-16.93,-16.55,0,*5D
1486436542.77,37296,10.44,72690.0,-7.91,-16.79,-16.51,0,*5C
1486436544.0,37297,10.44,72690.5,-7.93,-16.69,-16.55,0,*5A
1486436545.23,37298,10.44,72686.3,-7.93,-16.83,-16.51,0,*55
1486436546.44,37299,10.44,72686.8,-7.93,-16.83,-16.41,0,*55
1486436547.67,37300,10.44,72684.5,-7.93,-16.79,-16.51,0,*50
1486436548.9,37301,10.44,72688.5,-7.93,-16.79,-16.51,0,*51
1486436550.11,37302,10.44,72684.8,-7.93,-16.83,-16.41,0,*56
1486436551.34,37303,10.44,72686.5,-7.91,-16.75,-16.45,0,*58
1486436552.57,37304,10.44,72690.8,-7.91,-16.79,-16.45,0,*53
1486436553.8,37305,10.44,72684.8,-7.91,-16.79,-16.45,0,*52
1486436555.06,37306,10.44,72690.0,-7.91,-16.65,-16.37,0,*59
1486436556.32,37307,10.44,72688.0,-7.91,-16.65,-16.37,0,*58
1486436557.56,37308,10.44,72688.3,-7.91,-16.75,-16.45,0,*53
1486436558.84,37309,10.44,72688.3,-7.91,-16.65,-16.31,0,*50
1486436560.11,37310,10.44,72688.8,-7.91,-16.65,-16.37,0,*5E
1486436561.37,37311,10.44,72690.0,-7.91,-16.65,-16.37,0,*5F
1486436562.63,37312,10.44,72690.3,-7.91,-16.65,-16.37,0,*5C
1486436563.87,37313,10.44,72688.0,-7.91,-16.59,-16.37,0,*52
1486436565.1,37314,10.44,72686.0,-7.89,-16.59,-16.31,0,*5A
1486436566.36,37315,10.44,72684.3,-7.89,-16.65,-16.31,0,*54
1486436567.59,37316,10.44,72688.0,-7.89,-16.59,-16.31,0,*58
1486436568.86,37317,10.44,72690.0,-7.85,-16.59,-16.31,0,*55
1486436570.12,37318,10.44,72688.0,-7.85,-16.69,-16.41,0,*5E
1486436571.33,37319,10.44,72686.0,-7.89,-16.75,-16.45,0,*5A
1486436572.59,37320,10.44,72690.8,-7.85,-16.69,-16.37,0,*54
1486436573.8,37321,10.44,72684.0,-7.89,-16.75,-16.37,0,*54
1486436575.03,37322,10.44,72684.5,-7.89,-16.65,-16.37,0,*56
1486436576.24,37323,10.44,72686.3,-7.89,-16.75,-16.45,0,*53
1486436577.44,37324,10.44,72686.8,-7.89,-16.75,-16.45,0,*54
1486436578.71,37325,10.44,72688.0,-7.85,-16.69,-16.41,0,*50
1486436579.91,37326,10.44,72684.8,-7.89,-16.75,-16.45,0,*56
1486436581.12,37327,10.44,72684.3,-7.89,-16.75,-16.45,0,*57
1486436582.32,37328,10.44,72686.3,-7.89,-16.79,-16.45,0,*54
1486436583.52,37329,10.44,72684.3,-7.89,-16.89,-16.45,0,*5A
1486436584.73,37330,10.44,72686.5,-7.89,-16.79,-16.45,0,*5D
1486436585.97,37331,10.44,72684.8,-7.85,-16.75,-16.41,0,*58
1486436587.17,37332,10.44,72686.5,-7.89,-16.79,-16.45,0,*5F
1486436588.38,37333,10.44,72686.3,-7.89,-16.79,-16.45,0,*5E
1486436589.61,37334,10.44,72684.5,-7.89,-16.75,-16.51,0,*50
1486436590.84,37335,10.44,72684.0,-7.89,-16.79,-16.51,0,*5D
1486436592.08,37336,10.44,72682.8,-7.89,-16.79,-16.51,0,*5E
1486436593.31,37337,10.44,72686.5,-7.89,-16.79,-16.51,0,*5F
1486436594.54,37338,10.44,72684.3,-7.89,-16.79,-16.51,0,*50
1486436595.77,37339,10.44,72684.8,-7.85,-16.83,-16.45,0,*5D
1486436597.01,37340,10.44,72686.3,-7.89,-16.79,-16.51,0,*5F
1486436598.21,37341,10.44,72688.8,-7.89,-16.75,-16.45,0,*57
1486436599.44,37342,10.44,72688.5,-7.91,-16.75,-16.45,0,*5D
1486436600.65,37343,10.44,72690.0,-7.89,-16.79,-16.45,0,*59
1486436601.85,37344,10.44,72686.8,-7.89,-16.75,-16.45,0,*52
1486436603.06,37345,10.44,72686.3,-7.89,-16.75,-16.45,0,*53
1486436604.29,37346,10.44,72682.8,-7.89,-16.65,-16.45,0,*51
1486436605.52,37347,10.44,72688.3,-7.89,-16.69,-16.45,0,*5C
1486436606.72,37348,10.44,72684.5,-7.89,-16.75,-16.45,0,*5E
1486436607.96,37349,10.44,72686.3,-7.89,-16.65,-16.45,0,*5E
1486436609.17,37350,10.44,72688.3,-7.89,-16.75,-16.37,0,*52
1486436610.37,37351,10.44,72690.8,-7.89,-16.75,-16.45,0,*56
1486436611.58,37352,10.44,72684.8,-7.89,-16.75,-16.45,0,*55
1486436612.81,37353,10.44,72686.5,-7.89,-16.65,-16.45,0,*55
1486436614.01,37354,10.44,72688.3,-7.89,-16.75,-16.45,0,*53
1486436615.22,37355,10.44,72686.5,-7.89,-16.75,-16.45,0,*52
1486436616.43,37356,10.44,72688.0,-7.89,-16.75,-16.45,0,*51
1486436617.66,37357,10.44,72688.8,-7.89,-16.65,-16.45,0,*51
1486436618.86,37358,10.44,72688.0,-7.89,-16.75,-16.45,0,*5F
1486436620.1,37359,10.44,72684.3,-7.89,-16.65,-16.37,0,*5A
1486436621.33,37360,10.44,72686.5,-7.89,-16.65,-16.37,0,*50
1486436622.54,37361,10.44,72684.0,-7.89,-16.59,-16.45,0,*5B
1486436623.75,37362,10.44,72686.5,-7.89,-16.59,-16.37,0,*5D
1486436625.0,37363,10.44,72686.3,-7.89,-16.51,-16.31,0,*52
1486436626.23,37364,10.44,72686.0,-7.89,-16.51,-16.45,0,*56
1486436627.49,37365,10.44,72686.8,-7.85,-16.45,-16.27,0,*5A
1486436628.75,37366,10.44,72690.3,-7.91,-16.37,-16.23,0,*5D
1486436630.02,37367,10.44,72688.3,-7.91,-16.37,-16.17,0,*5B
1486436631.26,37368,10.44,72692.5,-7.89,-16.37,-16.17,0,*5D
1486436632.49,37369,10.44,72690.3,-7.89,-16.45,-16.23,0,*5E
1486436633.73,37370,10.44,72686.0,-7.89,-16.45,-16.23,0,*56
1486436634.96,37371,10.44,72686.3,-7.89,-16.37,-16.23,0,*52
1486436636.2,37372,10.44,72690.8,-7.89,-16.37,-16.17,0,*56
1486436637.48,37373,10.44,72686.8,-7.85,-16.31,-16.13,0,*59
1486436638.77,37374,10.44,72690.5,-7.85,-16.31,-16.17,0,*5A
1486436640.04,37375,10.44,72688.0,-7.85,-16.41,-16.17,0,*5C
1486436641.31,37376,10.44,72688.3,-7.85,-16.41,-16.27,0,*5C
1486436642.54,37377,10.44,72690.0,-7.89,-16.45,-16.23,0,*51
1486436643.82,37378,10.44,72688.0,-7.85,-16.31,-16.27,0,*55
1486436645.09,37379,10.44,72692.3,-7.85,-16.41,-16.17,0,*50
1486436646.38,37380,10.44,72688.0,-7.85,-16.31,-16.27,0,*52
1486436647.61,37381,10.44,72688.0,-7.89,-16.37,-16.31,0,*5E
1486436648.84,37382,10.44,72684.8,-7.89,-16.37,-16.31,0,*5D
1486436650.12,37383,10.44,72690.5,-7.85,-16.41,-16.17,0,*55
1486436651.38,37384,10.44,72684.3,-7.85,-16.41,-16.27,0,*51
1486436652.64,37385,10.44,72690.5,-7.85,-16.45,-16.31,0,*53
1486436653.88,37386,10.44,72684.3,-7.89,-16.41,-16.31,0,*58
1486436655.16,37387,10.44,72688.3,-7.85,-16.31,-16.31,0,*52
1486436656.37,37388,10.44,72686.5,-7.89,-16.45,-16.37,0,*54
1486436657.58,37389,10.44,72686.8,-7.89,-16.45,-16.37,0,*55
1486436658.81,37390,10.44,72688.0,-7.89,-16.45,-16.31,0,*5B
1486436660.04,37391,10.44,72686.5,-7.89,-16.45,-16.31,0,*5A
1486436661.31,37392,10.44,72686.3,-7.85,-16.41,-16.27,0,*56
1486436662.59,37393,10.44,72688.5,-7.85,-16.31,-16.27,0,*50
1486436663.82,37394,10.44,72690.0,-7.89,-16.45,-16.23,0,*5C
1486436665.09,37395,10.44,72684.5,-7.85,-16.41,-16.17,0,*52
1486436666.38,37396,10.44,72688.0,-7.85,-16.31,-16.27,0,*55
1486436667.61,37397,10.44,72690.5,-7.89,-16.41,-16.27,0,*5F
1486436668.9,37398,10.44,72688.8,-7.85,-16.31,-16.17,0,*58
1486436670.18,37399,10.44,72690.0,-7.85,-16.31,-16.27,0,*5A
1486436671.47,37400,10.44,72686.5,-7.85,-16.31,-16.17,0,*5E
1486436672.7,37401,10.44,72688.3,-7.89,-16.37,-16.23,0,*52
1486436674.0,37402,10.44,72690.0,-7.85,-16.27,-16.09,0,*54
1486436675.26,37403,10.44,72688.5,-7.85,-16.17,-16.03,0,*5C
1486436676.52,37404,10.44,72686.8,-7.85,-16.17,-15.99,0,*5B
1486436677.79,37405,10.44,72686.0,-7.85,-16.13,-15.95,0,*52
1486436679.06,37406,10.44,72688.0,-7.85,-16.13,-15.95,0,*51
1486436680.33,37407,10.44,72690.3,-7.85,-16.13,-16.03,0,*5C
1486436681.57,37408,10.44,72686.3,-7.83,-16.27,-16.03,0,*52
1486436682.84,37409,10.44,72688.8,-7.83,-16.27,-16.13,0,*52
1486436684.11,37410,10.44,72690.8,-7.83,-16.17,-16.13,0,*59
1486436685.35,37411,10.44,72684.5,-7.83,-16.27,-16.03,0,*5A
1486436686.62,37412,10.44,72684.5,-7.83,-16.27,-16.13,0,*58
1486436687.86,37413,10.44,72684.3,-7.83,-16.17,-16.03,0,*5B
1486436689.13,37414,10.44,72684.8,-7.83,-16.17,-16.17,0,*59
1486436690.42,37415,10.44,72686.5,-7.81,-16.23,-16.09,0,*52
1486436691.69,37416,10.44,72686.5,-7.83,-16.17,-16.13,0,*5F
1486436692.96,37417,10.44,72686.8,-7.83,-16.27,-16.27,0,*5A
1486436694.23,37418,10.44,72686.8,-7.83,-16.27,-16.17,0,*56
1486436695.5,37419,10.44,72682.3,-7.83,-16.27,-16.27,0,*54
1486436696.76,37420,10.44,72682.3,-7.83,-16.27,-16.27,0,*5E
1486436698.03,37421,10.44,72684.3,-7.83,-16.27,-16.27,0,*5F
1486436699.29,37422,10.44,72682.8,-7.83,-16.27,-16.27,0,*5C
1486436700.57,37423,10.44,72684.0,-7.83,-16.27,-16.17,0,*5E
1486436701.83,37424,10.44,72682.0,-7.83,-16.17,-16.31,0,*5E
1486436703.1,37425,10.44,72688.3,-7.83,-16.27,-16.27,0,*5B
1486436704.36,37426,10.44,72684.3,-7.83,-16.27,-16.27,0,*58
1486436705.65,37427,10.44,72682.8,-7.85,-16.27,-16.27,0,*5F
1486436706.94,37428,10.44,72682.0,-7.85,-16.27,-16.17,0,*53
1486436708.23,37429,10.44,72686.8,-7.85,-16.27,-16.27,0,*51
1486436709.52,37430,10.44,72682.0,-7.85,-16.27,-16.17,0,*5A
1486436710.79,37431,10.44,72684.0,-7.83,-16.17,-16.27,0,*5D
1486436712.06,37432,10.44,72680.3,-7.83,-16.27,-16.17,0,*5E
1486436713.32,37433,10.44,72686.0,-7.83,-16.27,-16.27,0,*5C
1486436714.59,37434,10.44,72684.5,-7.83,-16.17,-16.27,0,*58
1486436715.86,37435,10.44,72684.8,-7.83,-16.17,-16.17,0,*5A
1486436717.13,37436,10.44,72686.0,-7.83,-16.17,-16.13,0,*5D
1486436718.41,37437,10.44,72684.5,-7.83,-16.27,-16.17,0,*5B
1486436719.68,37438,10.44,72684.0,-7.83,-16.17,-16.17,0,*57
1486436720.95,37439,10.44,72688.3,-7.83,-16.13,-16.17,0,*52
1486436722.25,37440,10.44,72686.3,-7.81,-16.09,-16.09,0,*5A
1486436723.52,37441,10.44,72684.5,-7.83,-16.13,-16.13,0,*59
1486436724.79,37442,10.44,72684.5,-7.83,-16.17,-16.27,0,*59
1486436726.08,37443,10.44,72680.5,-7.81,-16.23,-16.27,0,*5D
1486436727.34,37444,10.44,72684.0,-7.83,-16.27,-16.31,0,*5B
1486436728.61,37445,10.44,72686.0,-7.83,-16.27,-16.27,0,*5D
1486436729.9,37446,10.44,72682.5,-7.81,-16.23,-16.23,0,*5C
1486436731.16,37447,10.44,72686.5,-7.83,-16.27,-16.31,0,*58
1486436732.43,37448,10.44,72680.8,-7.83,-16.27,-16.31,0,*57
1486436733.69,37449,10.44,72686.5,-7.83,-16.17,-16.31,0,*55
1486436734.96,37450,10.44,72686.0,-7.83,-16.27,-16.31,0,*5E
1486436736.2,37451,10.44,72684.5,-7.83,-16.27,-16.41,0,*58
1486436737.44,37452,10.44,72680.3,-7.83,-16.27,-16.41,0,*5B
1486436738.71,37453,10.44,72680.3,-7.83,-16.17,-16.27,0,*59
1486436739.98,37454,10.44,72680.0,-7.83,-16.17,-16.27,0,*5E
1486436741.24,37455,10.44,72678.8,-7.83,-16.27,-16.31,0,*5B
1486436742.53,37456,10.44,72682.0,-7.81,-16.23,-16.27,0,*59
1486436743.79,37457,10.44,72684.8,-7.83,-16.27,-16.31,0,*59
1486436745.04,37458,10.44,72684.0,-7.83,-16.17,-16.41,0,*52
1486436746.31,37459,10.44,72682.8,-7.83,-16.17,-16.31,0,*54
1486436747.57,37460,10.44,72686.0,-7.83,-16.27,-16.27,0,*5A
1486436748.84,37461,10.44,72686.0,-7.83,-16.17,-16.27,0,*58
1486436750.11,37462,10.44,72686.0,-7.83,-16.17,-16.31,0,*5C
1486436751.38,37463,10.44,72684.0,-7.83,-16.17,-16.31,0,*5D
1486436752.65,37464,10.44,72682.3,-7.83,-16.17,-16.27,0,*5D
1486436753.91,37465,10.44,72684.0,-7.83,-16.17,-16.27,0,*5C
1486436755.19,37466,10.44,72682.8,-7.83,-16.13,-16.17,0,*58
1486436756.46,37467,10.44,72686.5,-7.83,-16.13,-16.27,0,*5A
1486436757.73,37468,10.44,72686.3,-7.83,-16.13,-16.27,0,*55
1486436759.0,37469,10.44,72684.3,-7.83,-16.17,-16.27,0,*50
1486436760.26,37470,10.44,72686.0,-7.83,-16.27,-16.27,0,*5B
1486436761.55,37471,10.44,72680.0,-7.85,-16.27,-16.27,0,*5C
1486436762.82,37472,10.44,72682.8,-7.83,-16.13,-16.27,0,*5E
1486436764.11,37473,10.44,72686.0,-7.81,-16.09,-16.23,0,*52
1486436765.38,37474,10.44,72686.5,-7.83,-16.13,-16.27,0,*58
1486436766.68,37475,10.44,72684.3,-7.85,-16.13,-16.17,0,*5C
1486436767.92,37476,10.44,72684.3,-7.83,-16.03,-16.27,0,*5B
1486436769.17,37477,10.44,72682.8,-7.83,-16.03,-16.17,0,*59
1486436770.46,37478,10.44,72684.0,-7.85,-16.13,-16.31,0,*55
1486436771.74,37479,10.44,72680.0,-7.85,-16.13,-16.27,0,*53
1486436773.04,37480,10.44,72680.8,-7.85,-16.13,-16.17,0,*56
1486436774.3,37481,10.44,72686.0,-7.85,-16.03,-16.27,0,*55
1486436775.56,37482,10.44,72686.0,-7.85,-16.03,-16.27,0,*56
1486436776.85,37483,10.44,72686.8,-7.85,-16.13,-16.27,0,*56
1486436778.14,37484,10.44,72684.3,-7.85,-16.13,-16.27,0,*51
1486436779.43,37485,10.44,72686.5,-7.85,-16.13,-16.27,0,*50
1486436780.69,37486,10.44,72682.8,-7.85,-16.03,-16.27,0,*52
1486436781.95,37487,10.44,72684.0,-7.85,-16.03,-16.31,0,*54
1486436783.21,37488,10.44,72684.3,-7.85,-16.03,-16.31,0,*5B
1486436784.47,37489,10.44,72686.0,-7.85,-16.03,-16.27,0,*5D
1486436785.73,37490,10.44,72690.0,-7.85,-16.03,-16.27,0,*55
1486436787.0,37491,10.44,72684.3,-7.85,-16.03,-16.27,0,*54
1486436788.25,37492,10.44,72688.0,-7.85,-16.03,-16.31,0,*50
1486436789.54,37493,10.44,72684.3,-7.85,-16.13,-16.31,0,*50
1486436790.81,37494,10.44,72686.8,-7.85,-16.03,-16.17,0,*52
1486436792.07,37495,10.44,72686.0,-7.85,-16.03,-16.17,0,*53
1486436793.33,37496,10.44,72684.8,-7.89,-16.17,-16.31,0,*5D
1486436794.6,37497,10.44,72686.5,-7.85,-16.03,-16.17,0,*51
1486436795.89,37498,10.44,72686.3,-7.85,-16.13,-16.27,0,*5C
1486436797.15,37499,10.44,72686.3,-7.85,-16.03,-16.27,0,*5C
1486436798.4,37500,10.44,72686.5,-7.85,-15.99,-16.27,0,*5D
1486436799.66,37501,10.44,72686.8,-7.85,-16.03,-16.27,0,*5C
1486436800.93,37502,10.44,72686.0,-7.85,-16.03,-16.17,0,*5C
1486436802.19,37503,10.44,72688.8,-7.85,-16.03,-16.27,0,*5E
1486436803.45,37504,10.44,72684.5,-7.85,-16.03,-16.27,0,*59
1486436804.71,37505,10.44,72686.8,-7.85,-16.03,-16.27,0,*58
1486436805.97,37506,10.44,72682.8,-7.85,-16.03,-16.27,0,*5B
1486436807.24,37507,10.44,72686.0,-7.85,-16.03,-16.17,0,*59
1486436808.5,37508,10.44,72686.8,-7.85,-16.03,-16.27,0,*55
1486436809.76,37509,10.44,72686.5,-7.89,-16.09,-16.31,0,*55
1486436811.02,37510,10.44,72684.3,-7.85,-16.03,-16.27,0,*5C
1486436812.29,37511,10.44,72686.8,-7.85,-16.03,-16.17,0,*5E
1486436813.55,37512,10.44,72686.8,-7.89,-16.09,-16.31,0,*5F
1486436814.78,37513,10.44,72684.8,-7.89,-16.03,-16.23,0,*57
1486436816.01,37514,10.44,72684.3,-7.89,-16.03,-16.31,0,*53
1486436817.27,37515,10.44,72684.0,-7.85,-15.95,-16.27,0,*55
1486436818.54,37516,10.44,72684.3,-7.85,-16.03,-16.27,0,*5A
1486436819.77,37517,10.44,72686.8,-7.89,-16.03,-16.31,0,*50
1486436821.03,37518,10.44,72684.3,-7.89,-16.09,-16.31,0,*55
1486436822.29,37519,10.44,72684.5,-7.85,-16.03,-16.27,0,*55
1486436823.54,37520,10.44,72686.8,-7.85,-15.99,-16.27,0,*5F
1486436824.78,37521,10.44,72684.5,-7.89,-16.03,-16.23,0,*56
1486436826.01,37522,10.44,72686.8,-7.89,-16.03,-16.31,0,*56
1486436827.26,37523,10.44,72684.8,-7.85,-15.99,-16.27,0,*5C
1486436828.53,37524,10.44,72682.8,-7.89,-16.09,-16.23,0,*59
1486436829.75,37525,10.44,72686.3,-7.89,-15.99,-16.23,0,*52
1486436831.01,37526,10.44,72684.3,-7.85,-15.99,-16.27,0,*59
1486436832.23,37527,10.44,72686.3,-7.89,-15.99,-16.23,0,*50
1486436833.49,37528,10.44,72682.8,-7.85,-15.99,-16.27,0,*57
1486436834.72,37529,10.44,72686.5,-7.89,-16.03,-16.23,0,*5E
1486436835.94,37530,10.44,72684.5,-7.89,-15.99,-16.31,0,*55
1486436837.17,37531,10.44,72686.3,-7.89,-15.99,-16.23,0,*57
1486436838.43,37532,10.44,72688.3,-7.85,-15.99,-16.17,0,*5F
1486436839.65,37533,10.44,72686.0,-7.89,-15.99,-16.31,0,*56
1486436840.88,37534,10.44,72686.0,-7.89,-15.99,-16.23,0,*52
1486436842.11,37535,10.44,72686.8,-7.89,-16.03,-16.31,0,*50
1486436843.34,37536,10.44,72688.8,-7.89,-15.99,-16.23,0,*50
1486436844.56,37537,10.44,72684.8,-7.89,-15.99,-16.31,0,*52
1486436845.82,37538,10.44,72684.5,-7.85,-15.99,-16.27,0,*56
1486436847.04,37539,10.44,72686.0,-7.89,-15.99,-16.31,0,*5C
1486436848.27,37540,10.44,72686.3,-7.89,-16.03,-16.31,0,*52
1486436849.54,37541,10.44,72686.0,-7.85,-15.95,-16.27,0,*54
1486436850.76,37542,10.44,72686.8,-7.89,-15.99,-16.31,0,*50
1486436851.99,37543,10.44,72686.8,-7.89,-15.99,-16.31,0,*51
1486436853.25,37544,10.44,72686.5,-7.85,-15.95,-16.27,0,*51
1486436854.47,37545,10.44,72684.8,-7.89,-15.99,-16.23,0,*54
1486436855.7,37546,10.44,72686.5,-7.89,-15.99,-16.31,0,*54
1486436856.93,37547,10.44,72684.0,-7.89,-15.99,-16.23,0,*56
1486436858.15,37548,10.44,72684.3,-7.89,-15.99,-16.31,0,*5A
1486436859.38,37549,10.44,72686.3,-7.89,-15.99,-16.31,0,*5B
1486436860.6,37550,10.44,72690.3,-7.89,-15.99,-16.23,0,*50
1486436861.84,37551,10.44,72686.5,-7.89,-15.95,-16.27,0,*59
1486436863.06,37552,10.44,72684.8,-7.89,-15.99,-16.23,0,*52
1486436864.29,37553,10.44,72684.3,-7.89,-16.03,-16.31,0,*50
1486436865.52,37554,10.44,72686.3,-7.89,-15.99,-16.31,0,*57
1486436866.74,37555,10.44,72690.3,-7.89,-15.99,-16.31,0,*56
1486436867.97,37556,10.44,72684.5,-7.89,-15.99,-16.23,0,*56
1486436869.23,37557,10.44,72686.8,-7.89,-15.89,-16.31,0,*55
1486436870.46,37558,10.44,72688.5,-7.89,-16.03,-16.23,0,*58
1486436871.72,37559,10.44,72688.3,-7.89,-15.89,-16.23,0,*58
1486436872.98,37560,10.44,72690.8,-7.89,-15.89,-16.23,0,*52
1486436874.2,37561,10.44,72688.3,-7.89,-15.99,-16.23,0,*52
1486436875.43,37562,10.44,72690.0,-7.89,-15.99,-16.23,0,*51
1486436876.66,37563,10.44,72686.5,-7.89,-15.99,-16.23,0,*50
1486436877.92,37564,10.44,72688.5,-7.89,-15.89,-16.23,0,*56
1486436879.17,37565,10.44,72688.5,-7.89,-15.85,-16.23,0,*5B
1486436880.47,37566,10.44,72686.3,-7.91,-15.89,-16.17,0,*5A
1486436881.76,37567,10.44,72684.5,-7.91,-15.89,-16.17,0,*5B
1486436883.04,37568,10.44,72686.8,-7.91,-15.89,-16.23,0,*53
1486436884.33,37569,10.44,72686.8,-7.91,-15.89,-16.17,0,*55
1486436885.62,37570,10.44,72686.3,-7.91,-15.85,-16.17,0,*51
1486436886.88,37571,10.44,72686.0,-7.89,-15.89,-16.23,0,*52
1486436888.14,37572,10.44,72688.0,-7.89,-15.89,-16.31,0,*52
1486436889.4,37573,10.44,72686.8,-7.89,-15.89,-16.31,0,*53
1486436890.63,37574,10.44,72690.5,-7.89,-15.99,-16.31,0,*55
1486436891.89,37575,10.44,72686.5,-7.89,-15.89,-16.23,0,*56
1486436893.18,37576,10.44,72690.0,-7.91,-15.85,-16.17,0,*57
1486436894.47,37577,10.44,72690.5,-7.91,-15.85,-16.17,0,*56
1486436895.76,37578,10.44,72688.8,-7.91,-15.85,-16.09,0,*56
1486436897.05,37579,10.44,72688.5,-7.91,-15.85,-16.17,0,*58
1486436898.34,37580,10.44,72688.8,-7.91,-15.85,-16.17,0,*5E
1486436899.63,37581,10.44,72690.0,-7.91,-15.85,-16.17,0,*5F
1486436900.87,37582,10.44,72686.3,-7.89,-15.75,-16.09,0,*55